KI5NYZ-13 Weather Reports


Display with metric or nautical units.
time (UTC)temp
F
wind
direction
speed
MPH
gust
MPH
rain 1hr
in
rain 24hr
in
rain mn
in
humidity
%
barometer
mb
20260905075047 74 360 0.0 0.0 0.00 0.30 0.00 68 1010.4
20260905072046 75 187 0.0 0.0 0.00 0.30 0.00 67 1010.3
20260905065045 76 284 0.0 0.0 0.00 0.30 0.00 65 1010.2
20260905062044 77 194 0.0 0.0 0.00 0.30 0.00 63 1010.1
20260905055043 78 201 1.0 1.0 0.00 0.30 0.00 61 1009.6
20260905052042 79 195 2.0 2.0 0.01 0.30 0.00 58 1009.3
20260905045041 80 194 3.0 3.0 0.04 0.29 0.29 57 1009.4
20260905042040 80 192 4.0 4.0 0.07 0.28 0.28 57 1009.3
20260905035039 81 180 4.0 4.0 0.11 0.24 0.24 55 1009.0
20260905032038 82 180 4.0 5.0 0.13 0.19 0.19 53 1008.4
20260905025037 83 175 3.0 5.0 0.07 0.12 0.12 51 1007.6
20260905022036 85 121 1.0 1.0 0.02 0.06 0.06 49 1007.0
20260905015035 87 135 2.0 2.0 0.00 0.04 0.04 44 1005.8
20260905012034 95 134 0.0 0.0 0.00 0.03 0.03 28 1003.7
20260905005034 98 199 0.0 1.0 0.00 0.03 0.03 25 1002.8
20260905002032 100 187 0.0 0.0 0.00 0.03 0.03 23 1002.2
20260904235031 101 217 0.0 2.0 0.00 0.03 0.03 22 1001.9
20260904232030 99 166 0.0 0.0 0.00 0.03 0.03 23 1001.9
20260904225029 101 198 1.0 2.0 0.01 0.03 0.03 24 1001.5
20260904222029 102 188 2.0 2.0 0.01 0.04 0.03 22 1001.5
20260904215028 102 226 3.0 3.0 0.01 0.04 0.02 23 1001.7
20260904212026 101 351 0.0 1.0 0.01 0.05 0.02 22 1002.2
20260904205026 102 190 4.0 4.0 0.00 0.04 0.01 21 1002.7
20260904202024 100 141 1.0 5.0 0.00 0.04 0.00 24 1003.5
20260904195022 100 186 4.0 10.0 0.00 0.04 0.00 24 1003.8
20260904192022 100 171 0.0 4.0 0.00 0.04 0.00 24 1004.2
20260904185021 97 261 3.0 3.0 0.00 0.05 0.00 27 1005.0
20260904182019 95 263 3.0 3.0 0.00 0.07 0.00 31 1005.9
20260904175019 93 241 3.0 3.0 0.00 0.09 0.00 34 1006.7
20260904172017 91 276 3.0 3.0 0.00 0.10 0.00 36 1007.3
20260904165017 90 284 3.0 3.0 0.00 0.11 0.00 39 1007.7
20260904162015 88 271 4.0 4.0 0.00 0.12 0.00 41 1008.2
20260904155014 86 272 7.0 7.0 0.00 0.13 0.00 43 1008.4
20260904152013 84 241 8.0 8.0 0.00 0.14 0.00 45 1008.9
20260904145013 82 234 4.0 4.0 0.00 0.15 0.00 47 1009.1
20260904142011 79 247 2.0 2.0 0.00 0.15 0.00 51 1009.7
20260904135010 75 180 0.0 0.0 0.00 0.15 0.00 54 1010.2
20260904132010 72 267 0.0 0.0 0.00 0.15 0.00 59 1010.4
20260904125008 71 210 0.0 1.0 0.00 0.15 0.00 61 1010.4
20260904122007 70 28 0.0 0.0 0.00 0.15 0.00 62 1010.4
20260904115006 71 41 0.0 0.0 0.00 0.15 0.00 62 1010.0
20260904112005 72 248 3.0 3.0 0.00 0.15 0.00 60 1009.6
20260904105004 72 276 2.0 2.0 0.00 0.15 0.00 60 1009.5
20260904102003 73 258 1.0 1.0 0.00 0.15 0.00 60 1009.2
20260904095002 73 194 0.0 0.0 0.00 0.15 0.00 59 1009.0
20260904092002 74 204 0.0 1.0 0.00 0.15 0.00 57 1008.7
20260904085000 72 240 2.0 2.0 0.00 0.15 0.00 62 1009.1